TimeCDT,TemperatureF,Dew PointF,Humidity,Sea Level PressureIn,VisibilityMPH,Wind Direction,Wind SpeedMPH,Gust SpeedMPH,PrecipitationIn,Events,Conditions,WindDirDegrees,DateUTC
12:15 AM,67.8,59.0,73,30.02,10.0,SSE,11.5,-,N/A,,Clear,160,2014-04-11 05:15:00
12:35 AM,67.6,59.0,74,30.02,10.0,SSE,10.4,-,N/A,,Clear,160,2014-04-11 05:35:00
12:55 AM,67.6,59.2,74,30.01,10.0,SSE,11.5,-,N/A,,Clear,160,2014-04-11 05:55:00
1:15 AM,67.5,59.4,75,30.00,10.0,SSE,11.5,-,N/A,,Clear,160,2014-04-11 06:15:00
1:35 AM,67.5,59.5,76,30.00,10.0,SSE,11.5,16.1,N/A,,Clear,160,2014-04-11 06:35:00
1:55 AM,68.0,59.9,75,29.99,10.0,SSE,12.7,19.6,N/A,,Clear,160,2014-04-11 06:55:00
2:15 AM,68.0,60.1,76,29.99,10.0,SSE,15.0,20.7,N/A,,Clear,160,2014-04-11 07:15:00
2:35 AM,67.6,60.1,77,29.99,10.0,South,13.8,20.7,N/A,,Clear,170,2014-04-11 07:35:00
2:55 AM,67.5,60.1,77,29.98,10.0,SSE,12.7,18.4,N/A,,Clear,160,2014-04-11 07:55:00
3:15 AM,67.1,60.1,78,29.98,10.0,SSE,11.5,-,N/A,,Clear,160,2014-04-11 08:15:00
3:35 AM,66.4,59.9,80,29.97,10.0,SSE,9.2,-,N/A,,Clear,160,2014-04-11 08:35:00
3:55 AM,66.2,59.9,80,29.97,10.0,SSE,11.5,16.1,N/A,,Clear,160,2014-04-11 08:55:00
4:15 AM,65.8,59.5,80,29.96,10.0,SSE,9.2,-,N/A,,Clear,160,2014-04-11 09:15:00
4:35 AM,65.8,59.5,80,29.96,10.0,SSE,9.2,-,N/A,,Clear,160,2014-04-11 09:35:00
4:55 AM,65.5,59.5,81,29.96,10.0,SSE,9.2,-,N/A,,Clear,160,2014-04-11 09:55:00
5:15 AM,65.7,59.5,81,29.96,10.0,SSE,10.4,-,N/A,,Clear,160,2014-04-11 10:15:00
5:35 AM,65.8,59.9,81,29.95,10.0,SSE,8.1,-,N/A,,Clear,160,2014-04-11 10:35:00
5:55 AM,65.3,59.9,83,29.96,10.0,SSE,9.2,-,N/A,,Clear,160,2014-04-11 10:55:00
6:15 AM,65.3,59.9,83,29.96,10.0,SSE,8.1,-,N/A,,Clear,160,2014-04-11 11:15:00
6:35 AM,64.4,59.4,84,29.97,10.0,South,4.6,-,N/A,,Clear,170,2014-04-11 11:35:00
6:55 AM,63.7,59.2,85,29.97,10.0,SSE,4.6,-,N/A,,Clear,150,2014-04-11 11:55:00
7:15 AM,63.5,59.2,86,29.97,10.0,SSE,5.8,-,N/A,,Clear,150,2014-04-11 12:15:00
7:35 AM,63.7,59.4,86,29.97,10.0,SSE,5.8,-,N/A,,Clear,150,2014-04-11 12:35:00
7:55 AM,64.8,59.9,84,29.98,10.0,SE,3.5,-,N/A,,Clear,130,2014-04-11 12:55:00
8:15 AM,66.4,60.6,82,29.99,10.0,SSE,5.8,-,N/A,,Clear,150,2014-04-11 13:15:00
8:35 AM,68.5,61.2,77,29.99,10.0,SSE,8.1,-,N/A,,Clear,160,2014-04-11 13:35:00
9:15 AM,72.9,60.8,66,29.99,7.0,South,18.4,21.9,N/A,,Clear,170,2014-04-11 14:15:00
9:35 AM,74.1,60.1,61,30.00,10.0,South,17.3,26.5,N/A,,Clear,170,2014-04-11 14:35:00
9:55 AM,75.2,59.4,58,30.00,10.0,South,20.7,26.5,N/A,,Clear,170,2014-04-11 14:55:00
10:15 AM,77.0,59.2,54,30.00,10.0,South,18.4,26.5,N/A,,Clear,180,2014-04-11 15:15:00
10:35 AM,78.1,59.2,52,30.01,10.0,South,17.3,24.2,N/A,,Clear,180,2014-04-11 15:35:00
10:55 AM,79.2,59.5,51,30.01,10.0,South,16.1,21.9,N/A,,Clear,180,2014-04-11 15:55:00
11:15 AM,80.2,58.5,47,30.01,10.0,South,16.1,24.2,N/A,,Clear,190,2014-04-11 16:15:00
11:35 AM,81.5,58.8,46,30.01,10.0,South,12.7,21.9,N/A,,Clear,190,2014-04-11 16:35:00
11:55 AM,82.6,59.2,45,30.01,7.0,SSE,16.1,23.0,N/A,,Clear,160,2014-04-11 16:55:00
12:15 PM,83.1,58.5,43,30.00,7.0,SSE,16.1,21.9,N/A,,Clear,160,2014-04-11 17:15:00
12:35 PM,83.1,58.1,42,30.00,10.0,South,18.4,25.3,N/A,,Clear,170,2014-04-11 17:35:00
12:55 PM,85.1,56.8,38,29.99,10.0,SSE,16.1,25.3,N/A,,Clear,150,2014-04-11 17:55:00
1:15 PM,84.9,54.1,35,29.98,7.0,South,20.7,28.8,N/A,,Clear,170,2014-04-11 18:15:00
1:35 PM,86.0,53.4,33,29.97,7.0,SSE,19.6,25.3,N/A,,Clear,150,2014-04-11 18:35:00
1:55 PM,86.2,53.6,33,29.96,10.0,SSE,17.3,25.3,N/A,,Clear,160,2014-04-11 18:55:00
2:15 PM,86.0,52.7,32,29.96,7.0,SSE,18.4,24.2,N/A,,Clear,160,2014-04-11 19:15:00
2:55 PM,87.1,54.3,33,29.95,10.0,South,13.8,25.3,N/A,,Clear,170,2014-04-11 19:55:00
3:15 PM,87.4,54.5,32,29.94,10.0,SSE,17.3,27.6,N/A,,Clear,160,2014-04-11 20:15:00
3:35 PM,87.1,55.6,34,29.93,10.0,SSE,17.3,25.3,N/A,,Clear,150,2014-04-11 20:35:00
3:55 PM,86.2,56.7,36,29.93,10.0,SSE,18.4,26.5,N/A,,Clear,160,2014-04-11 20:55:00
4:15 PM,85.8,57.2,38,29.92,10.0,South,15.0,24.2,N/A,,Clear,170,2014-04-11 21:15:00
4:35 PM,85.5,57.7,39,29.91,10.0,SSE,17.3,25.3,N/A,,Clear,160,2014-04-11 21:35:00
4:55 PM,85.6,59.5,41,29.91,10.0,SSE,17.3,24.2,N/A,,Clear,160,2014-04-11 21:55:00
5:15 PM,84.6,59.4,42,29.90,10.0,South,16.1,25.3,N/A,,Clear,170,2014-04-11 22:15:00
5:35 PM,84.0,59.2,43,29.90,10.0,SSE,19.6,23.0,N/A,,Clear,150,2014-04-11 22:35:00
5:55 PM,82.9,60.1,46,29.90,10.0,SE,16.1,27.6,N/A,,Clear,140,2014-04-11 22:55:00
6:15 PM,81.9,59.9,47,29.90,10.0,SSE,18.4,26.5,N/A,,Clear,150,2014-04-11 23:15:00
6:35 PM,80.1,60.6,51,29.91,10.0,SSE,15.0,25.3,N/A,,Clear,150,2014-04-11 23:35:00
6:55 PM,79.0,60.6,53,29.91,10.0,SSE,17.3,24.2,N/A,,Clear,150,2014-04-11 23:55:00
7:15 PM,77.5,60.1,55,29.92,10.0,SSE,18.4,25.3,N/A,,Clear,150,2014-04-12 00:15:00
7:35 PM,76.1,60.1,57,29.93,10.0,SSE,17.3,23.0,N/A,,Clear,160,2014-04-12 00:35:00
7:55 PM,75.4,60.6,60,29.94,10.0,SSE,15.0,21.9,N/A,,Clear,150,2014-04-12 00:55:00
8:15 PM,74.5,60.6,62,29.94,10.0,SSE,13.8,23.0,N/A,,Clear,160,2014-04-12 01:15:00
8:35 PM,73.9,60.6,63,29.95,10.0,SSE,11.5,19.6,N/A,,Clear,150,2014-04-12 01:35:00
8:55 PM,73.2,61.3,66,29.96,10.0,SSE,16.1,20.7,N/A,,Clear,150,2014-04-12 01:55:00
9:15 PM,72.5,62.1,70,29.97,10.0,SE,12.7,19.6,N/A,,Clear,140,2014-04-12 02:15:00
9:35 PM,71.6,62.6,73,29.97,10.0,SE,10.4,-,N/A,,Clear,140,2014-04-12 02:35:00
9:55 PM,71.1,63.0,75,29.97,10.0,SE,10.4,-,N/A,,Clear,140,2014-04-12 02:55:00
10:15 PM,70.9,63.5,77,29.98,10.0,SE,10.4,-,N/A,,Clear,140,2014-04-12 03:15:00
10:35 PM,70.3,63.7,79,29.98,10.0,SE,12.7,-,N/A,,Clear,140,2014-04-12 03:35:00
10:55 PM,70.0,63.9,81,29.98,10.0,SSE,11.5,16.1,N/A,,Clear,150,2014-04-12 03:55:00
11:15 PM,69.8,63.9,81,29.98,10.0,SSE,10.4,16.1,N/A,,Clear,150,2014-04-12 04:15:00
11:35 PM,69.8,64.4,83,29.98,10.0,SSE,12.7,17.3,N/A,,Clear,150,2014-04-12 04:35:00
11:55 PM,69.6,64.4,83,29.98,10.0,SE,10.4,-,N/A,,Clear,140,2014-04-12 04:55:00